Total_Precipitation_Accumulation
0.01 0.02 0.02 0.02 0.02 0.03 0.06 0.13 0.17 0.21 0.27 0.29 0.38 0.47 0.77 0.98 1.07 1.19 1.33 1.54 1.74 1.92 2.00 2.17 2.47 2.68 2.79 2.93 3.17 3.46 3.88 4.22 4.29 4.10 4.00 3.90 3.55 3.27 2.94 2.63 2.55 2.64 2.56 2.64
0.02 0.03 0.02 0.02 0.02 0.04 0.07 0.14 0.19 0.24 0.29 0.29 0.43 0.54 0.78 1.16 1.29 1.25 1.28 1.32 1.40 1.79 2.00 2.22 2.48 2.59 2.56 2.76 3.05 3.46 3.88 4.20 4.10 4.16 4.32 4.22 3.97 3.35 2.99 2.81 2.68 2.62 2.59 2.59
0.03 0.03 0.02 0.03 0.04 0.06 0.09 0.13 0.17 0.24 0.35 0.32 0.42 0.77 0.97 1.26 1.39 1.27 1.24 1.25 1.20 1.37 1.64 1.80 1.96 2.13 2.39 2.81 3.21 3.46 3.73 3.88 3.92 4.07 4.18 3.90 3.68 3.18 2.99 2.99 2.83 2.69 2.73 2.73
0.02 0.03 0.03 0.05 0.06 0.07 0.11 0.10 0.11 0.18 0.31 0.44 0.53 1.07 1.36 1.56 1.43 1.18 1.21 1.27 1.37 1.46 1.49 1.58 1.70 2.01 2.37 2.75 3.25 3.66 3.67 3.69 3.62 3.75 3.83 3.63 3.28 2.99 2.86 2.86 2.64 2.53 2.48 2.50
0.06 0.04 0.03 0.04 0.06 0.06 0.08 0.08 0.09 0.16 0.25 0.41 0.58 0.97 1.41 1.49 1.38 1.14 1.05 1.23 1.45 1.40 1.38 1.48 1.57 1.83 2.07 2.46 2.85 3.24 3.52 3.58 3.44 3.40 3.41 3.48 3.25 2.94 2.73 2.63 2.50 2.44 2.43 2.27
0.08 0.07 0.06 0.05 0.06 0.06 0.07 0.09 0.14 0.24 0.41 0.72 0.57 0.71 1.14 1.36 1.24 1.02 1.01 1.15 1.29 1.45 1.45 1.52 1.74 1.91 2.03 2.30 2.62 2.85 3.08 3.12 3.06 2.97 2.97 3.03 3.00 2.92 2.65 2.44 2.41 2.41 2.32 2.15
0.17 0.17 0.12 0.09 0.08 0.07 0.08 0.18 0.50 0.83 1.11 0.98 0.62 0.73 1.10 1.04 0.89 0.79 0.86 1.10 1.33 1.56 1.55 1.64 1.81 1.92 1.99 2.11 2.26 2.37 2.48 2.53 2.46 2.45 2.40 2.40 2.44 2.48 2.32 2.22 2.28 2.28 2.19 2.06
0.25 0.24 0.17 0.15 0.12 0.11 0.11 0.21 0.57 0.76 0.89 0.86 0.81 1.04 1.10 0.87 0.74 0.74 0.80 0.97 1.23 1.40 1.43 1.54 1.62 1.54 1.52 1.59 1.70 1.82 1.89 1.92 1.88 1.94 2.01 2.03 2.16 2.13 2.05 2.14 2.11 2.12 2.08 2.04
0.14 0.15 0.15 0.15 0.16 0.15 0.20 0.26 0.27 0.44 0.54 0.88 1.08 1.20 1.09 0.79 0.91 0.89 0.94 1.01 1.06 1.12 1.15 1.14 1.15 1.19 1.28 1.34 1.38 1.44 1.55 1.60 1.53 1.56 1.69 1.77 1.80 1.84 1.86 1.94 1.93 1.83 1.81 1.69
0.08 0.11 0.13 0.11 0.12 0.15 0.21 0.34 0.46 0.67 0.87 1.02 1.10 1.38 1.52 1.34 1.26 1.14 1.21 1.42 1.24 0.98 0.97 0.98 0.93 0.96 0.99 1.03 1.17 1.33 1.44 1.57 1.57 1.49 1.50 1.45 1.51 1.55 1.70 1.77 1.70 1.69 1.70 1.63
0.08 0.11 0.14 0.15 0.15 0.20 0.33 0.41 0.51 0.65 0.74 0.96 1.20 1.38 1.19 1.30 1.26 1.22 1.23 1.27 1.09 0.78 0.67 0.73 0.73 0.73 0.78 0.88 1.02 1.15 1.40 1.56 1.47 1.31 1.31 1.36 1.34 1.41 1.51 1.56 1.50 1.53 1.58 1.62
0.10 0.12 0.16 0.19 0.19 0.19 0.28 0.41 0.52 0.69 0.77 0.84 1.03 1.16 0.77 0.90 0.90 0.91 0.99 0.88 0.73 0.61 0.52 0.63 0.64 0.59 0.65 0.71 0.81 0.96 1.14 1.28 1.25 1.21 1.23 1.33 1.42 1.40 1.34 1.32 1.30 1.31 1.34 1.33
0.13 0.17 0.27 0.46 0.43 0.29 0.26 0.29 0.36 0.45 0.58 0.66 0.92 1.11 0.72 0.68 0.74 0.75 0.76 0.75 0.59 0.64 0.61 0.60 0.64 0.56 0.54 0.58 0.71 0.84 0.91 1.00 1.11 1.13 1.18 1.28 1.28 1.24 1.25 1.33 1.34 1.29 1.27 1.26
0.14 0.15 0.23 0.48 0.56 0.44 0.34 0.33 0.34 0.38 0.51 0.55 0.61 0.86 0.81 0.75 0.75 0.78 0.71 0.59 0.51 0.54 0.65 0.61 0.57 0.53 0.48 0.48 0.54 0.63 0.73 0.83 0.91 1.00 1.15 1.32 1.36 1.37 1.41 1.42 1.41 1.35 1.27 1.29
0.13 0.14 0.15 0.21 0.30 0.32 0.31 0.30 0.33 0.35 0.39 0.49 0.53 0.66 0.75 0.69 0.75 0.83 0.72 0.59 0.59 0.52 0.53 0.52 0.50 0.44 0.43 0.44 0.46 0.53 0.68 0.79 0.90 1.04 1.19 1.32 1.36 1.37 1.37 1.33 1.36 1.35 1.26 1.23
0.17 0.18 0.19 0.27 0.31 0.34 0.34 0.34 0.30 0.28 0.25 0.28 0.40 0.60 0.61 0.59 0.64 0.70 0.68 0.67 0.66 0.65 0.49 0.42 0.44 0.42 0.40 0.38 0.41 0.44 0.59 0.75 0.87 1.00 1.12 1.16 1.22 1.29 1.24 1.19 1.18 1.18 1.20 1.21
0.23 0.26 0.30 0.36 0.41 0.48 0.52 0.41 0.40 0.39 0.34 0.36 0.56 0.69 0.57 0.56 0.57 0.58 0.55 0.56 0.59 0.59 0.58 0.52 0.50 0.47 0.41 0.39 0.43 0.46 0.51 0.66 0.83 0.95 0.99 1.06 1.18 1.23 1.18 1.09 1.11 1.14 1.16 1.17
0.28 0.34 0.36 0.39 0.55 0.76 0.58 0.33 0.30 0.31 0.34 0.33 0.42 0.48 0.47 0.49 0.49 0.52 0.56 0.52 0.50 0.41 0.43 0.51 0.54 0.57 0.58 0.54 0.55 0.58 0.59 0.65 0.79 0.95 1.04 1.09 1.19 1.23 1.22 1.18 1.13 1.12 1.10 1.10
0.25 0.38 0.45 0.49 0.60 0.63 0.51 0.36 0.36 0.40 0.43 0.31 0.35 0.40 0.41 0.47 0.51 0.59 0.48 0.38 0.48 0.41 0.41 0.43 0.47 0.56 0.72 0.77 0.73 0.75 0.78 0.74 0.78 0.92 1.05 1.16 1.29 1.30 1.28 1.27 1.22 1.20 1.17 1.13
0.28 0.36 0.49 0.50 0.70 0.78 0.60 0.41 0.44 0.55 0.80 0.51 0.45 0.50 0.50 0.47 0.68 0.75 0.46 0.34 0.54 0.48 0.43 0.41 0.44 0.53 0.66 0.72 0.68 0.71 0.78 0.85 0.88 0.97 1.07 1.17 1.27 1.36 1.33 1.36 1.38 1.32 1.29 1.22
0.54 0.56 0.56 0.56 0.73 0.80 0.55 0.43 0.51 0.90 1.08 0.63 0.55 0.55 0.59 0.60 0.60 0.53 0.41 0.41 0.53 0.47 0.44 0.42 0.46 0.61 0.67 0.66 0.69 0.78 0.80 0.87 0.93 1.03 1.12 1.24 1.36 1.40 1.39 1.45 1.48 1.44 1.38 1.39
0.77 0.75 0.71 0.76 0.97 1.01 0.59 0.54 0.75 0.85 0.63 0.59 0.57 0.53 0.55 0.55 0.48 0.40 0.36 0.37 0.41 0.46 0.47 0.54 0.64 0.74 0.74 0.77 0.88 0.95 0.98 0.95 0.99 1.11 1.18 1.32 1.46 1.32 1.30 1.51 1.58 1.56 1.54 1.54
0.83 0.84 0.87 0.92 1.00 0.84 0.69 0.73 0.81 0.67 0.64 0.57 0.51 0.50 0.48 0.50 0.46 0.40 0.38 0.35 0.37 0.45 0.48 0.59 0.72 0.79 0.81 0.87 1.03 1.23 1.21 1.15 1.12 1.21 1.30 1.34 1.39 1.49 1.57 1.60 1.65 1.63 1.58 1.56
0.83 0.74 0.90 1.02 0.99 0.88 0.78 0.76 0.76 0.68 0.61 0.50 0.43 0.45 0.47 0.50 0.53 0.47 0.44 0.43 0.41 0.44 0.48 0.54 0.69 0.76 0.89 0.99 1.13 1.36 1.39 1.36 1.36 1.41 1.47 1.48 1.48 1.52 1.65 1.80 1.78 1.69 1.57 1.60
0.91 0.88 1.00 1.15 1.10 0.98 0.83 0.72 0.67 0.60 0.54 0.49 0.44 0.44 0.48 0.52 0.55 0.52 0.56 0.54 0.47 0.50 0.51 0.57 0.74 0.88 0.95 0.99 1.08 1.24 1.40 1.54 1.58 1.58 1.57 1.59 1.61 1.67 1.71 1.71 1.67 1.62 1.55 1.48
0.80 0.95 1.17 1.26 1.04 0.93 0.86 0.73 0.70 0.59 0.53 0.52 0.51 0.47 0.50 0.51 0.49 0.50 0.55 0.59 0.53 0.58 0.67 0.66 0.71 0.85 0.93 1.00 1.11 1.25 1.46 1.72 1.90 1.85 1.72 1.70 1.71 1.75 1.73 1.71 1.53 1.33 1.26 1.20